This is the latest recevied weather packets stored in our database for station/object KC3WWU. If no packets are shown the sender has not sent any weather packets the latest 10 day(s).
| Time | Temp. | Humidity | Pressure | Rain* | Wind** | Luminosity | Snow |
|---|---|---|---|---|---|---|---|
| 1778088961 | 12.22° C | 99% | 1006.4 hPa | 0 mm | - | 142 W/m² | - |
| 1778088658 | 12.22° C | 99% | 1006.2 hPa | 0 mm | - | 187 W/m² | - |
| 1778088355 | 12.22° C | 99% | 1006 hPa | 0 mm | - | 243 W/m² | - |
| 1778088051 | 12.22° C | 99% | 1005.9 hPa | 0 mm | - | 214 W/m² | - |
| 1778087749 | 12.22° C | 99% | 1006.1 hPa | 0 mm | - | 285 W/m² | - |
| 1778087447 | 11.67° C | 99% | 1006 hPa | 0 mm | - | 193 W/m² | - |
| 1778087143 | 12.22° C | 99% | 1005.9 hPa | 0 mm | - | 133 W/m² | - |
| 1778086835 | 11.67° C | 99% | 1005.9 hPa | 0 mm | - | 157 W/m² | - |
| 1778086534 | 11.67° C | 99% | 1006.1 hPa | 1.78 mm | - | 140 W/m² | - |
| 1778086229 | 11.67° C | 99% | 1005.9 hPa | 1.78 mm | - | 147 W/m² | - |
| 1778085926 | 11.67° C | 99% | 1006.1 hPa | 0 mm | - | 93 W/m² | - |
| 1778085624 | 11.67° C | 99% | 1006 hPa | 0 mm | - | 81 W/m² | - |
| 1778085320 | 11.67° C | 99% | 1006 hPa | 0 mm | - | 102 W/m² | - |
| 1778085016 | 11.67° C | 99% | 1006.1 hPa | 0 mm | - | 116 W/m² | - |
| 1778084712 | 11.67° C | 99% | 1006.1 hPa | 0 mm | - | 89 W/m² | - |
| 1778084409 | 11.67° C | 99% | 1005.9 hPa | 0 mm | - | 73 W/m² | - |
| 1778084107 | 12.22° C | 99% | 1005.9 hPa | 0 mm | - | 65 W/m² | - |
| 1778083804 | 12.78° C | 99% | 1005.8 hPa | 0 mm | - | 93 W/m² | - |
| 1778083501 | 12.78° C | 99% | 1005.8 hPa | 0 mm | - | 126 W/m² | - |
| 1778083198 | 13.33° C | 99% | 1005.5 hPa | 0 mm | - | 66 W/m² | - |
| 1778082896 | 13.33° C | 99% | 1005.6 hPa | 0 mm | - | 66 W/m² | - |
| 1778081783 | 13.33° C | 99% | 1005.2 hPa | 0 mm | - | 70 W/m² | - |
| 1778081480 | 13.33° C | 99% | 1005.1 hPa | 0 mm | - | 60 W/m² | - |
| 1778081177 | 13.89° C | 99% | 1005.1 hPa | 0 mm | - | 78 W/m² | - |
| 1778080875 | 13.89° C | 99% | 1005 hPa | 0 mm | - | 148 W/m² | - |
* Rain latest hour (hover to see other rain measurements)
** Current wind speed in m/s (hover to see current wind gust speed)